Details From GCLA - La Palma
To GCXO - Tenerife Norte - Los Rodeos
Flight Number -
Tags decoded
Created
Modified
Stats Distance 79 nm / 145 km
Max Altitude 0 ft / 0 m
Waypoints 3
Social Downloads 1
Likes 0
Share VATSIM

Download

Looking for another format? Having issues loading an existing format? Contact us
Advertisement - Login to hide

Notes

Requested: GCLA ARACO GCXO

Route

GCLA ARACO GCXO

ID Type Via Altitude Latitude Longitude Leg Dist Tot Dist Heading (true) Name
O GCLA APT - 0 ft / 0 m 28.62648˚ -17.75561˚ - 0 nm - La Palma
ARACO FIX - 0 ft / 0 m 28.43252˚ -17.45233˚ 19 nm 19 nm 126° / 126° -
O GCXO APT - 0 ft / 0 m 28.48266˚ -16.34154˚ 58 nm 78 nm 87° / 87° Tenerife Norte - Los Rodeos

Altitude Profile

Advertisement - Login to hide

GCLA

Details ICAO GCLA (SPC)
Name La Palma
Region Canary Islands
Timezone Atlantic/Canary (UTC+1.0)
Stats Elevation 107 ft / 33 m (AMSL)
Location 28.626480° -17.755613°
Runways 1
Magnetic Variation 5.578° W

METAR

GCLA 261830Z 01011KT 350V050 CAVOK 26/17 Q1014

Decode

TAF

TAF GCLA 261400Z 2615/2715 03011KT 9999 FEW015 TX26/2714Z TN21/2705Z BECMG 2621/2623 33008KT BECMG 2708/2710 03010KT

Decode

Departure Runways

ID Width Length Bearing (true) Bearing (mag) Surface Threshold Offset Overrun Length
01 148 ft / 45 m 7,240 ft / 2,207 m 359.02° 4.60° Asphalt 0 ft / 0 m 279 ft / 85 m
19 148 ft / 45 m 7,240 ft / 2,207 m 179.02° 184.60° Asphalt 0 ft / 0 m 236 ft / 72 m

GCXO

Details ICAO GCXO (TFN)
Name Tenerife Norte - Los Rodeos
Region Canary Islands
Timezone Atlantic/Canary (UTC+1.0)
Stats Elevation 2,076 ft / 633 m (AMSL)
Location 28.482656° -16.341541°
Runways 1
Magnetic Variation 5.058° W

METAR

GCXO 261830Z 28009KT CAVOK 25/19 Q1016 NOSIG

Decode

TAF

TAF GCXO 261400Z 2615/2715 30010KT 9999 FEW005 TX27/2714Z TN18/2705Z PROB30 TEMPO 2620/2706 4500 BCFG BKN002 TEMPO 2615/2619 11005KT BECMG 2702/2704 14010KT

Decode

Destination Runways

ID Width Length Bearing (true) Bearing (mag) Surface Threshold Offset Overrun Length
12 148 ft / 45 m 11,165 ft / 3,403 m 110.67° 115.73° Asphalt 0 ft / 0 m 197 ft / 60 m
30 148 ft / 45 m 11,165 ft / 3,403 m 290.69° 295.75° Asphalt 0 ft / 0 m 197 ft / 60 m

Approach Navaids

Runway Type Ident Frequency Range Bearing (true) Bearing (mag) Slope Elevation
12 Localiser INOR 108.70 MHz 18 nm / 33 km 110.69° 115.75° - 3,356 ft / 1,023 m (AMSL)
12 Glidescope INOR 108.70 MHz 10 nm / 19 km 110.68° 115.74° 3.00° 2,070 ft / 631 m (AMSL)
12 DME INOR 108.70 MHz 18 nm / 33 km - - - 2,070 ft / 631 m (AMSL)
30 Localiser ITF 110.30 MHz 18 nm / 33 km 290.67° 295.72° - 2,025 ft / 617 m (AMSL)
30 Glidescope ITF 110.30 MHz 10 nm / 19 km 290.68° 295.74° 3.00° 2,025 ft / 617 m (AMSL)
30 DME ITF 110.30 MHz 18 nm / 33 km - - - 2,031 ft / 619 m (AMSL)

Popular Alternatives